User: anonymous   Login
Location: Kielce
(50.8833°N, 20.6167°E)
Time: 17:11:45
(UTC+02:00)
Language:

Vanguard 2 Rocket - Orbit

View from above orbital plane
View from above orbital plane
View from above satellite
View from above satellite

Ground track
Ground track

The orbit data is extracted from the following two-line orbital elements,

1 00012U 59001B   21100.82538285  .00000032  00000-0  10432-5 0  9993
2 00012  32.9067  30.4441 1666273 199.4893 153.3766 11.44400112314054
Epoch (UTC): 10 April 2021 19:48:33
Eccentricity: 0.1666273
inclination: 32.9067°
perigee height: 554 km
apogee height: 3326 km
right ascension of ascending node: 30.4441°
argument of perigee: 199.4893°
revolutions per day: 11.44400112
mean anomaly at epoch: 153.3766°
orbit number at epoch: 31405

The dashed part of the orbit path shows where the satellite is in the earth's shadow,  

DLR